SL-14 R/B, 19791

Orbit data source: Space-Track

SL-14 R/B, 19791 is space debris in LEO originally from a launch on Fri, 10 Feb 1989 UTC launched from the Plesetsk Missile And Space Complex (PKMTR). Debris objects in space refer to the collection of defunct objects orbiting the Earth. Examples of debris include non-operational satellites, rocket bodies, and fragments generated from explosions, collisions, or faulty payload assembly.

Loading next visibility...
Identifier
19791, 1989-009G
Orbit
LEO
Country
Flag of CISCIS
Related business
Manufacturer
Yuzhnoe
Mission
Spacecraft
Bus & Motor
S5M, Unknown motor
Mass
1,600 kg wet, 1,600 kg dry
Launch date (UTC)
1989-02-10 (37 years ago)
Launch vehicle
Unknown
Launch site
Plesetsk Missile And Space Complex (PKMTR)
Object type
Payload
Rocket body
Debris
Shape & HBR
Cyl, 1.4 m
Radar Cross Section
7.351 m², Large (>1 m²)

Expand to show TLE details & history
Last TLE update: 1 day ago

TLE from 1 day ago
0 SL-14 R/B
1 19791U 89009G   25293.69410310  .00000008  00000-0 -13771-4 0  9990
2 19791  82.6085 282.1534 0035719 115.6335  57.7079 12.54879286680519
Epoch: 2025-10-20T16:39Z
TLE epoch observation values (Epoch: 2025-10-20T16:39:30.507Z)
Latitude
6.18652°
Longitude
-177.9182°
Altitude
1,431.427 km
Speed
7.153 km/s
True Right ascension
06h 45m 24s
True Declination
6° 09' 11"
Sunlit
Object was in daylight at epoch
Visualization orbit readout
Latitude
Unknown
Longitude
Unknown
Altitude
Unknown
Speed
Unknown
Apparent Right ascension
Unknown
Apparent Declination
Unknown
Sunlit
N/A
Visualization observer readout
Local Sidereal Time
13:44:57
Azimuth
Unknown
Elevation
Unknown
Doppler factor
Unknown
Orbital elements
Apogee altitude
1,469.413 km
Perigee altitude
1,413.551 km
Semi-major axis
7,819.619 km
Eccentricity
0.00357
Inclination
82.6085°
RAAN
282.1534°
Arg. of periapsis
115.6335°
True anomaly
58.05473°
Mean anomaly
57.7079°
Eccentric anomaly
57.88123°
Mean motion
3.13881 °/min
Orbital period
114.69 mins
BSTAR
-0.000013771
Loading maneuver chart data...
Computing Atmospheric mass density...
Loading historical data...
Loading historical data...
Loading historical data...
Loading historical data...
Loading historical data...
Loading historical data...
Loading historical data...

Documentation

Showing up to 5 results
|